CAPE
15 16 15 20 12 0 0 12 0 1 1 3 2 1 1 3 4 9 6 3 0 1 0 0 1 2 0 0 0 7 388 286 0 0 0 0 0 0 0 0 0 0 0 0 0 0 0
0 0 11 18 10 0 1 9 8 0 1 2 1 1 2 1 3 3 4 4 0 0 0 0 1 1 0 0 0 0 1 0 0 0 0 0 0 0 0 0 0 0 0 0 0 0 0
0 0 0 10 0 0 1 3 3 1 1 2 3 0 1 6 3 3 2 1 0 0 1 1 3 0 0 0 0 0 0 0 0 0 0 0 0 0 0 0 0 0 0 0 0 0 0
0 0 0 0 0 0 0 0 0 2 0 0 2 0 1 0 2 1 0 0 0 1 2 2 3 0 0 0 0 0 0 0 0 0 0 0 0 0 0 0 0 0 0 0 0 0 0
0 0 0 0 0 0 0 0 0 0 0 0 0 0 0 0 0 0 0 0 1 1 1 4 0 0 0 0 0 0 0 0 0 0 0 0 0 0 0 0 0 0 0 0 0 0 0
0 0 0 0 0 0 0 0 0 0 0 0 0 0 0 1 1 0 0 1 1 3 1 0 0 0 0 0 0 0 0 0 0 0 0 0 0 0 0 0 0 0 0 0 0 0 0
0 0 0 0 0 0 0 0 3 0 0 0 0 2 2 2 1 0 1 1 0 0 0 0 0 0 0 0 0 0 0 0 0 0 0 0 0 0 0 0 0 0 0 0 0 0 0
0 0 0 0 0 0 0 0 2 1 2 2 2 0 0 2 1 0 1 0 0 0 4 0 0 0 0 0 0 0 0 0 0 0 0 0 0 0 0 0 0 0 0 0 0 0 0
0 0 0 0 0 0 0 0 1 0 0 0 0 0 0 1 2 7 0 0 0 0 2 0 0 0 0 0 0 0 0 0 0 0 0 0 0 0 0 0 0 0 0 0 0 0 0
0 0 0 0 0 0 0 0 0 0 0 0 0 0 0 0 1 0 0 0 0 0 0 0 0 0 0 0 0 0 0 0 0 0 0 0 0 0 0 0 0 0 0 0 0 0 0
0 0 0 0 0 0 0 0 0 0 0 0 0 0 0 0 0 3 27 125 0 0 0 0 0 0 0 0 0 0 0 0 0 0 0 0 0 0 0 0 0 0 0 0 0 0 0
0 0 0 0 0 0 0 0 0 0 0 1 0 0 0 2 0 0 0 0 0 0 0 0 0 0 0 0 0 0 0 0 0 0 0 0 0 0 0 0 0 0 0 0 0 0 0
0 0 0 0 0 0 0 0 0 0 0 1 0 0 0 0 181 22 0 0 0 0 0 0 0 0 0 0 0 0 0 0 0 0 0 0 0 0 0 0 0 0 0 0 0 0 0
0 0 0 0 0 0 0 0 0 0 1 0 0 0 0 0 0 0 0 0 0 0 0 0 0 0 0 0 0 0 0 0 0 0 0 0 0 0 0 0 0 0 0 0 0 0 0
0 0 0 0 0 0 0 0 0 0 0 0 0 0 0 0 0 0 0 0 0 0 0 0 0 0 0 0 0 0 0 0 0 0 0 0 0 0 0 0 0 0 0 0 0 0 0
0 0 0 0 0 0 0 0 0 0 0 0 0 0 0 0 0 0 0 0 24 0 0 0 0 0 0 0 0 0 0 0 0 0 0 0 0 0 0 0 0 0 0 0 0 0 0
0 0 0 0 0 0 0 0 0 0 0 0 0 0 0 0 0 0 0 0 2 3 0 0 0 0 0 0 0 0 0 0 0 0 0 0 0 0 0 0 0 0 0 0 0 0 0
0 0 0 0 0 0 0 0 1 0 0 0 0 0 0 0 0 0 0 0 0 0 0 0 0 0 0 0 0 0 0 0 0 0 0 0 0 0 0 0 0 0 0 0 0 0 0
0 0 0 0 0 0 1 0 1 0 0 0 0 108 0 0 0 0 0 0 0 0 0 0 0 0 0 0 0 0 0 0 0 0 0 0 0 0 0 0 0 0 0 0 0 0 0
0 0 0 0 0 0 1 1 0 0 0 0 0 33 0 0 0 0 0 0 0 0 0 0 0 0 0 0 0 0 0 0 0 0 0 0 0 0 0 0 0 0 0 0 0 0 0
0 0 0 1 0 0 0 1 0 0 0 0 0 0 0 0 0 0 0 0 0 0 0 0 0 0 0 0 0 0 0 0 0 0 0 0 0 0 0 0 0 0 0 0 0 0 0
0 0 0 0 1 0 0 0 0 0 0 0 0 0 0 0 0 0 0 0 0 0 0 0 0 0 0 0 0 0 0 0 0 0 0 0 0 0 0 0 0 0 0 0 0 0 0
0 0 0 0 0 1 0 0 0 0 0 0 0 0 0 0 0 0 0 0 1 0 0 0 0 0 0 0 0 0 0 0 0 0 0 0 0 0 0 0 0 0 0 0 0 0 0
1 0 0 0 0 0 0 0 0 0 0 0 0 0 0 0 0 0 0 0 0 0 0 0 0 0 0 0 0 0 0 0 0 0 0 0 0 0 0 0 0 0 0 0 0 0 0
1 1 1 0 0 0 0 0 0 0 0 0 0 0 0 0 0 0 0 0 0 0 0 0 0 0 0 0 0 0 0 0 0 0 0 0 0 0 0 0 0 0 0 0 0 0 0
0 0 0 0 0 0 0 0 0 0 0 0 0 0 0 0 0 0 0 0 0 0 0 0 0 0 0 0 0 0 0 0 0 0 0 0 0 0 0 0 0 0 0 0 0 0 0
0 0 0 0 0 0 0 0 0 0 0 3 2 0 0 0 0 0 0 0 0 0 0 0 0 0 0 0 0 0 0 0 0 0 0 0 0 0 0 0 0 0 0 0 0 0 0
0 0 0 0 0 0 0 0 0 0 0 0 7 0 0 0 0 0 0 0 0 0 0 0 0 0 0 0 0 0 0 0 0 0 0 0 0 0 0 0 0 0 0 0 0 0 0
0 0 0 0 0 0 0 0 1 0 0 8 22 0 0 0 0 0 0 0 0 0 0 0 0 0 0 0 0 0 0 0 0 0 0 0 0 0 0 0 0 0 0 0 0 0 0
CIN
0 -1 -11 -11 -4 0 0 0 0 0 0 -2 -1 0 0 0 0 -1 -3 -5 0 0 0 0 0 0 0 0 0 -173 -668 -713 0 0 0 0 0 0 0 0 0 0 0 0 0 0 0
0 -1 -12 -11 -8 0 0 0 0 0 -1 -1 0 0 0 0 -1 0 -1 -3 0 0 0 0 0 0 0 0 0 0 -277 0 0 0 0 0 0 0 0 0 0 0 0 0 0 0 0
0 0 -1 -16 -1 0 0 0 0 0 0 0 0 0 0 0 0 -1 0 -1 0 0 0 0 -1 0 0 0 0 0 0 0 0 0 0 0 0 0 0 0 0 0 0 0 0 0 0
0 0 0 0 0 0 0 0 0 0 0 0 0 0 0 -1 -1 0 0 0 0 0 0 0 -1 0 0 0 0 0 0 0 0 0 0 0 0 0 0 0 0 0 0 0 0 0 0
0 0 0 0 0 0 0 0 0 0 0 0 0 0 0 -2 0 0 0 0 0 0 0 -1 0 0 0 0 0 0 0 0 0 0 0 0 0 0 0 0 0 0 0 0 0 0 0
0 0 0 0 0 0 0 0 -2 0 0 0 0 0 0 -1 -1 0 0 -1 -2 0 0 0 0 0 0 0 0 0 0 0 0 0 0 0 0 0 0 0 0 0 0 0 0 0 0
0 0 0 0 0 0 0 0 0 0 0 0 0 0 0 0 -3 0 0 0 0 0 0 0 0 0 -1 0 0 0 0 0 0 0 0 0 0 0 0 0 0 0 0 0 0 0 0
0 0 0 0 0 0 0 0 -1 -1 -1 0 0 0 0 -1 -3 -3 0 0 0 0 -8 0 0 0 0 0 0 0 0 0 0 0 0 0 0 0 0 0 0 0 0 0 0 0 0
0 0 0 0 0 0 0 0 0 0 -1 0 0 0 0 -2 -3 0 0 0 0 0 -43 0 0 0 0 0 0 0 0 0 0 0 0 0 0 0 0 0 0 0 0 0 0 0 0
0 0 0 0 0 0 0 0 0 0 0 0 0 0 0 -3 0 0 0 0 0 0 0 0 0 0 0 0 0 0 0 0 0 0 0 0 0 0 0 0 0 0 0 0 0 0 0
0 0 0 0 0 0 0 0 0 0 0 0 0 0 0 0 0 -172 -271 -460 0 0 0 0 0 0 0 0 0 0 0 0 0 0 0 0 0 0 0 0 0 0 0 0 0 0 0
0 0 0 0 0 0 0 0 0 0 0 0 0 0 0 0 0 0 0 0 0 0 0 0 0 0 0 0 0 0 0 0 0 0 0 0 0 0 0 0 0 0 0 0 0 0 0
0 0 0 0 0 0 0 0 0 0 0 0 0 0 0 0 -177 -440 0 0 0 0 0 0 0 0 0 0 0 0 0 0 0 0 0 0 0 0 0 0 0 0 0 0 0 0 0
0 0 0 0 0 0 0 0 0 0 0 0 0 0 0 0 0 0 0 0 0 0 0 0 0 0 0 0 0 0 0 0 0 0 0 0 0 0 0 0 0 0 0 0 0 0 0
0 0 0 0 0 0 0 0 0 0 0 0 0 0 0 0 0 0 0 0 0 0 0 0 0 0 0 0 0 0 0 0 0 0 0 0 0 0 0 0 0 0 0 0 0 0 0
0 0 0 0 0 0 0 0 0 0 0 0 0 0 0 0 0 0 0 0 -97 0 0 0 0 0 0 0 0 0 0 0 0 0 0 0 0 0 0 0 0 0 0 0 0 0 0
0 0 0 0 0 0 0 0 0 0 0 0 0 0 0 0 0 0 0 0 -118 -133 0 0 0 0 0 0 0 0 0 0 0 0 0 0 0 0 0 0 0 0 0 0 0 0 0
0 0 0 0 0 0 0 0 0 0 0 0 0 0 0 0 0 0 0 0 -14 0 0 0 0 0 0 0 0 0 0 0 0 0 0 0 0 0 0 0 0 0 0 0 0 0 0
0 0 0 0 0 0 0 0 0 0 0 0 0 -94 0 0 0 0 0 0 0 0 0 0 0 0 0 0 0 0 0 0 0 0 0 0 0 0 0 0 0 0 0 0 0 0 0
0 0 0 0 0 0 0 0 0 0 0 0 0 -38 0 0 0 0 0 0 0 0 0 0 0 0 0 0 0 0 0 0 0 0 0 0 0 0 0 0 0 0 0 0 0 0 0
0 0 0 0 0 0 0 0 0 0 0 0 0 0 0 0 0 0 0 0 0 0 0 0 0 0 0 0 0 0 0 0 0 0 0 0 0 0 0 0 0 0 0 0 0 0 0
0 0 0 0 0 0 0 0 0 0 0 0 0 0 0 0 0 0 0 0 0 0 0 0 0 0 0 0 0 0 0 0 0 0 0 0 0 0 0 0 0 0 0 0 0 0 0
0 0 0 0 0 0 0 0 0 0 0 0 0 0 0 0 0 0 0 0 -44 0 0 0 0 0 0 0 0 0 0 0 0 0 0 0 0 0 0 0 0 0 0 0 0 0 0
0 0 0 0 0 0 0 0 0 0 0 0 0 0 0 0 0 0 0 0 0 0 0 0 0 0 0 0 0 0 0 0 0 0 0 0 0 0 0 0 0 0 0 0 0 0 0
0 0 0 0 0 0 0 0 0 0 0 0 0 0 0 0 0 0 0 0 0 0 0 0 0 0 0 0 0 0 0 0 0 0 0 0 0 0 0 0 0 0 0 0 0 0 0
0 0 0 0 0 0 0 0 0 0 0 0 0 0 0 0 0 0 0 0 0 0 0 0 0 0 0 0 0 0 0 0 0 0 0 0 0 0 0 0 0 0 0 0 0 0 0
0 0 0 0 0 0 0 0 0 0 0 -205 -282 0 0 0 0 0 0 0 0 0 0 0 0 0 0 0 0 0 0 0 0 0 0 0 0 0 0 0 0 0 0 0 0 0 0
0 0 0 0 0 0 0 0 0 0 0 0 -104 0 0 0 0 0 0 0 0 0 0 0 0 0 0 0 0 0 0 0 0 0 0 0 0 0 0 0 0 0 0 0 0 0 0
0 0 0 0 0 0 0 0 0 0 0 -253 -177 0 0 0 0 0 0 0 0 0 0 0 0 0 0 0 0 0 0 0 0 0 0 0 0 0 0 0 0 0 0 0 0 0 0
Wind_Speed
16 16 14 13 13 13 14 15 18 16 16 13 15 18 15 15 13 11 10 9 11 10 9 8 7 8 5 2 11 1 6 12 8 7 8 6 5 5 5 6 4 3 4 4 4 8 7
16 15 14 13 13 14 15 15 15 17 15 15 16 16 13 13 11 12 10 8 10 9 8 7 6 6 3 4 3 7 10 6 7 7 9 9 9 7 4 4 5 6 3 3 5 5 5
17 15 16 13 14 14 14 14 14 17 16 14 13 14 12 10 11 11 10 9 8 7 6 5 5 3 3 15 2 3 8 7 7 8 7 7 6 6 4 4 3 4 6 6 7 4 4
18 16 15 13 14 14 14 14 13 16 16 15 12 13 10 8 9 10 9 7 6 4 4 5 5 3 9 6 3 7 6 4 6 8 4 2 8 4 3 3 7 6 6 4 3 3 3
19 18 17 15 15 15 14 14 12 17 15 15 12 12 10 9 10 9 6 6 3 3 5 3 3 3 10 8 4 3 5 2 2 4 4 4 7 4 5 6 5 7 3 3 1 3 3
21 20 18 17 15 15 15 14 12 17 14 14 10 11 11 9 7 6 5 3 4 4 4 4 4 2 6 2 4 3 2 1 4 3 4 7 6 5 5 6 4 5 3 1 4 1 13
22 21 19 17 16 16 16 15 15 16 14 13 10 9 8 7 7 9 7 2 2 2 4 9 3 3 3 7 3 4 3 3 4 8 3 6 10 4 3 4 5 4 4 3 2 4 11
23 22 20 18 17 16 15 14 16 12 11 10 8 7 6 8 10 11 2 4 5 4 4 9 5 7 6 2 3 3 2 3 5 3 1 8 5 2 3 3 6 6 6 4 3 4 11
24 22 21 19 17 16 15 14 13 12 10 8 7 5 8 10 11 6 5 9 3 2 2 3 6 4 3 6 3 1 2 2 2 4 6 6 2 2 1 6 7 4 5 3 5 10 7
25 23 21 19 18 16 14 13 12 12 10 7 7 6 11 13 4 5 6 6 4 6 6 6 1 4 2 4 5 3 2 5 5 6 6 5 3 3 5 6 4 4 1 5 7 5 5
27 24 22 19 18 15 13 11 12 11 10 8 7 10 16 13 3 4 3 3 4 5 5 5 3 2 2 5 4 3 3 5 4 4 6 3 2 5 7 1 3 3 6 6 4 5 5
27 25 23 20 18 14 13 12 12 11 10 10 9 11 14 5 3 8 4 3 5 10 4 2 1 1 4 4 3 3 6 9 4 6 7 3 2 4 0 3 2 4 6 6 5 4 3
27 25 22 20 17 15 13 13 13 11 11 11 9 15 13 2 4 3 1 5 8 5 1 2 3 2 3 5 6 5 6 7 4 6 5 6 4 5 2 3 3 6 6 4 4 4 5
28 25 22 20 17 15 14 14 12 10 11 10 10 16 8 6 4 6 4 8 2 4 5 1 3 4 4 2 4 5 3 4 5 5 4 4 5 3 4 2 4 2 5 7 6 4 4
30 26 23 21 18 15 14 14 12 11 11 11 15 4 4 4 6 3 9 6 7 6 3 5 4 4 1 2 5 5 3 2 1 1 6 5 1 3 2 1 3 2 2 3 8 3 3
30 27 23 20 18 15 15 13 11 12 13 21 5 4 4 4 2 6 8 5 4 4 2 3 4 3 4 3 4 3 1 1 2 1 2 5 4 2 3 2 5 2 5 3 4 3 2
30 27 24 19 17 15 15 16 12 14 16 20 2 4 4 5 4 8 5 6 5 6 4 3 5 5 3 5 3 2 3 1 0 2 3 3 4 5 1 3 2 2 2 7 6 4 6
28 26 23 20 16 15 17 16 14 14 13 6 3 4 4 3 6 1 4 5 4 4 1 2 4 3 5 3 4 3 5 2 2 1 3 1 6 3 2 2 2 2 3 5 7 3 2
27 25 22 19 17 17 17 17 15 16 22 6 5 2 2 6 5 2 3 2 3 3 2 2 3 3 3 4 6 3 3 1 2 1 6 5 2 4 7 6 4 2 3 5 6 4 5
26 24 22 19 17 18 15 15 16 19 21 5 5 3 5 5 0 9 4 3 4 2 1 3 4 5 4 3 5 6 3 2 2 3 7 7 4 6 8 5 3 3 4 4 5 4 3
23 21 20 19 18 17 16 15 15 15 11 4 3 5 5 4 2 5 5 3 3 2 2 4 4 3 6 4 3 3 2 2 5 2 4 4 4 2 2 4 2 2 4 6 7 5 7
22 20 20 19 17 16 16 14 12 12 11 3 6 6 4 1 7 7 5 7 6 2 2 1 5 2 2 6 7 9 6 3 4 4 3 4 3 0 0 5 5 3 5 6 4 4 7
21 21 19 17 16 15 13 12 12 16 8 3 1 3 6 4 4 7 7 6 8 5 2 1 5 5 4 1 4 5 7 8 5 5 3 3 6 4 4 4 5 7 10 9 5 5 7
20 19 18 16 13 11 11 12 13 15 7 4 3 5 6 3 3 7 7 5 6 5 7 2 4 6 1 8 8 7 11 12 12 9 3 5 5 3 3 4 2 7 2 4 5 4 6
18 16 15 13 12 11 10 10 10 13 9 2 3 5 5 2 4 3 6 6 6 5 4 4 5 2 9 5 6 6 7 7 6 6 7 4 5 4 5 4 6 5 5 7 9 8 9
16 15 14 12 9 9 8 8 8 11 11 3 2 3 5 8 6 7 5 4 5 4 4 3 4 4 7 5 5 5 4 4 2 2 4 5 6 6 3 4 7 8 3 4 3 6 9
15 14 13 11 9 9 8 8 8 11 13 4 3 3 5 5 2 6 5 7 6 5 5 3 5 2 4 3 4 4 3 2 3 4 2 4 4 5 2 3 10 8 2 2 6 10 6
13 13 12 9 7 10 8 9 6 9 10 4 2 2 5 3 1 2 3 7 5 3 7 6 6 4 4 5 4 4 3 6 2 4 7 8 7 4 4 2 9 6 3 8 8 2 6
13 12 10 10 7 10 13 11 9 5 9 5 3 1 2 6 4 2 3 1 2 7 8 1 5 5 6 6 2 4 2 2 2 4 2 3 7 6 10 8 5 6 5 4 2 3 5
Wind_Direction
231 239 218 220 236 245 258 270 274 279 283 289 291 287 287 284 284 278 273 265 266 265 270 282 301 305 327 260 251 304 84 128 117 135 157 167 163 174 187 191 134 208 332 15 123 117 101
224 238 219 222 234 246 256 262 270 277 281 287 289 286 285 281 280 269 265 260 261 263 271 283 289 302 258 265 224 136 117 133 147 153 170 177 205 198 191 179 167 169 84 27 26 119 94
222 227 220 217 236 244 251 261 263 277 280 284 285 282 279 276 269 261 256 250 253 258 268 273 267 255 265 237 178 198 166 194 179 177 183 201 190 151 150 121 104 96 70 18 18 25 84
220 218 218 221 231 242 249 257 261 276 280 280 280 278 274 267 257 251 246 238 244 259 269 263 256 231 248 246 254 273 170 240 193 214 203 283 151 150 150 90 30 64 50 90 291 35 28
214 213 217 222 230 241 247 255 257 272 277 277 275 273 272 259 245 236 226 221 231 251 248 220 178 222 268 310 259 285 197 250 238 176 183 99 108 122 61 91 46 19 161 124 26 44 105
209 212 215 218 228 238 248 254 255 269 273 274 274 269 265 249 224 206 189 165 216 219 228 199 251 298 267 329 305 329 297 10 53 334 22 43 53 70 42 67 178 202 150 123 184 22 46
209 209 215 218 224 234 245 251 259 265 268 266 275 266 255 221 176 161 137 139 87 244 228 195 198 262 283 284 287 6 334 41 29 41 46 10 68 106 198 187 163 164 115 161 349 72 76
204 207 211 217 224 231 242 250 256 255 260 258 263 258 235 175 149 155 207 231 220 193 295 217 251 276 248 228 356 325 70 80 75 131 238 33 79 209 173 98 97 81 101 79 135 22 91
203 204 206 211 221 227 236 244 248 252 257 256 249 239 175 157 135 155 234 236 262 35 138 286 191 205 247 137 176 192 91 107 117 78 52 118 136 58 73 50 79 57 116 213 132 97 92
201 199 204 207 217 222 230 237 245 248 251 244 228 204 153 137 127 182 229 241 258 159 71 296 299 299 98 120 32 357 5 144 40 127 107 99 16 138 69 68 91 83 76 97 137 89 148
199 197 198 203 212 219 218 230 240 247 245 234 197 186 164 171 313 217 235 287 152 59 81 252 263 241 39 125 163 359 321 34 110 104 89 256 75 75 63 85 77 112 99 135 100 81 98
196 195 196 196 206 213 214 223 232 238 240 225 183 176 158 235 243 245 316 88 53 46 259 197 240 118 63 29 30 325 34 45 117 72 40 52 29 49 109 64 55 134 85 49 53 78 43
199 194 194 194 200 210 207 220 226 227 231 216 175 171 171 212 226 323 114 54 42 118 304 190 153 95 73 22 28 38 31 24 96 81 21 11 346 330 29 90 43 69 63 10 9 11 219
196 189 188 191 194 202 208 216 221 219 221 197 164 167 241 251 292 350 58 52 139 240 212 115 115 77 129 140 20 18 64 47 27 78 104 124 338 9 345 104 160 98 145 153 199 185 226
191 186 185 189 191 194 206 213 209 211 202 164 133 189 269 255 213 166 73 68 211 218 200 146 62 99 117 87 116 81 62 121 28 22 131 140 286 321 39 53 120 173 59 161 109 0 75
186 180 182 185 185 190 204 205 199 206 188 151 164 182 246 319 115 68 76 214 245 224 293 126 139 134 160 151 87 85 131 279 147 78 183 191 104 45 322 84 41 134 143 64 6 134 273
182 175 174 180 184 183 204 203 197 200 189 174 101 96 267 357 70 54 143 224 277 251 208 131 170 144 163 142 111 93 165 312 0 23 76 120 99 281 29 28 168 21 43 57 105 102 155
172 171 169 172 176 183 204 201 194 189 169 138 140 104 299 43 65 1 148 194 276 283 49 98 106 105 144 127 102 117 183 241 27 248 131 60 123 127 182 271 253 151 132 122 111 207 66
165 165 165 167 173 182 200 200 189 173 181 134 111 125 336 82 134 289 266 282 248 308 343 64 112 108 80 123 102 140 154 236 2 113 158 179 13 61 354 355 344 169 114 96 104 88 196
160 160 162 163 170 190 189 197 189 190 202 95 104 97 345 50 120 138 137 259 277 235 326 71 117 85 96 73 28 149 132 28 50 85 67 90 92 153 181 199 190 172 154 139 116 113 189
153 156 153 158 178 187 188 197 194 195 180 101 66 202 176 198 295 132 136 188 197 229 54 37 48 104 145 113 66 103 111 101 41 18 50 85 122 89 65 18 334 261 187 177 186 182 170
149 149 155 166 176 180 194 188 190 169 153 90 130 127 34 69 132 115 143 205 191 182 71 339 118 96 71 145 174 192 135 170 184 41 68 10 165 34 121 3 5 287 259 215 212 202 258
142 151 156 166 174 183 184 178 184 168 172 127 208 60 106 287 110 110 196 181 204 141 40 31 159 105 68 123 96 84 85 80 102 127 109 76 131 93 263 359 341 338 223 199 196 190 159
139 150 155 162 171 165 169 171 179 181 184 130 177 106 95 225 128 177 172 174 170 193 151 51 69 95 71 121 110 58 55 67 61 43 71 122 91 73 187 25 8 239 294 223 207 217 204
139 143 149 149 150 148 149 154 166 175 179 102 156 114 127 139 167 118 142 117 96 60 70 76 352 297 142 59 61 43 350 20 4 41 28 58 109 93 138 190 291 307 200 169 175 259 191
134 137 134 131 130 128 126 118 126 160 169 102 111 118 111 123 241 140 138 167 147 119 30 72 33 64 66 78 73 127 196 218 305 24 58 58 71 107 88 137 216 238 249 177 117 290 192
131 132 127 123 135 118 99 88 101 149 174 119 123 118 97 118 238 123 161 160 125 97 107 113 150 58 47 72 82 139 227 196 195 176 216 28 12 149 124 235 289 241 200 167 100 243 162
127 122 125 123 122 96 77 58 66 132 166 157 121 135 123 114 52 77 128 130 129 122 135 187 67 332 38 69 119 203 140 221 123 188 179 169 149 198 101 64 281 169 80 159 216 254 186
118 114 125 129 84 82 66 51 43 90 140 129 111 131 135 84 148 54 73 19 275 165 128 37 162 163 172 90 56 120 155 157 143 243 42 237 187 182 181 215 230 235 228 255 174 206 215